Location: Hawks Ness
(60.2333°N, 1.1667°W)
Time: 23:27:44
(UTC+00:00)

IRS-P3 - Pass Details

Date: 22 October 2019
Orbit: 814 x 819 km, 98.8° (Epoch: 21 November)

Event Time Altitude Azimuth Distance (km) Brightness Sun altitude
Rises 03:27:34 0° 18° (NNE) 3,356 7.9 -26.6°
Reaches altitude 10° 03:29:56 10° 15° (NNE) 2,420 7.1 -26.3°
Enters shadow 03:34:54 57° 311° (NW) 959 4.3 -25.7°
